Retour au catalogue

USA 264 DEB

ActifLEO
NORAD 40981·DEBRIS·🇺🇸 United States

Lancé Oct 8, 2015 depuis Vandenberg Space Force Base

Loading…

Prochains Passages (prochaines 24 heures)

TLE

PériméSource: Mike McCants

Époque: Sep 7, 2026, 00:56 UTC

1 40981U 15058R   26250.03905619 0.00000000  00000-0  00000-0 0    02
2 40981  63.4366 225.5830 0222196 358.1850   1.8150 13.41000965    03

Suivez USA 264 DEB en temps réel avec AllMySat

Download on the App Store